This is the latest recevied weather packets stored in our database for station/object NQ9F. If no packets are shown the sender has not sent any weather packets the latest 10 day(s).
| Time | Temp. | Humidity | Pressure | Rain* | Wind** | Luminosity | Snow |
|---|---|---|---|---|---|---|---|
| 1777671102 | 16.67° C | 67% | 1015.9 hPa | 0 mm | - | 256 W/m² | - |
| 1777670799 | 16.67° C | 65% | 1016 hPa | 0 mm | - | 264 W/m² | - |
| 1777670495 | 16.67° C | 67% | 1016.1 hPa | 0 mm | - | 267 W/m² | - |
| 1777670192 | 16.67° C | 66% | 1016.1 hPa | 0 mm | - | 289 W/m² | - |
| 1777669890 | 16.67° C | 68% | 1016.3 hPa | 0 mm | - | 261 W/m² | - |
| 1777669586 | 16.67° C | 68% | 1016.4 hPa | 0 mm | - | 222 W/m² | - |
| 1777669283 | 16.67° C | 67% | 1016.6 hPa | 0 mm | - | 202 W/m² | - |
| 1777668979 | 16.67° C | 67% | 1016.5 hPa | 0 mm | - | 220 W/m² | - |
| 1777668677 | 16.67° C | 65% | 1016.9 hPa | 0 mm | - | 210 W/m² | - |
| 1777668373 | 16.67° C | 65% | 1017 hPa | 0 mm | - | 194 W/m² | - |
| 1777668069 | 16.67° C | 68% | 1017.2 hPa | 0 mm | - | 179 W/m² | - |
| 1777667766 | 16.67° C | 65% | 1017 hPa | 0 mm | - | 169 W/m² | - |
| 1777667464 | 16.67° C | 66% | 1017.2 hPa | 0 mm | - | 163 W/m² | - |
| 1777667160 | 16.67° C | 67% | 1017.2 hPa | 0 mm | - | 168 W/m² | - |
| 1777666857 | 16.67° C | 67% | 1017.7 hPa | 0 mm | - | 164 W/m² | - |
| 1777666554 | 16.67° C | 66% | 1017.6 hPa | 0 mm | - | 163 W/m² | - |
| 1777666250 | 16.11° C | 66% | 1017.4 hPa | 0 mm | - | 148 W/m² | - |
| 1777665948 | 16.11° C | 66% | 1017.3 hPa | 0 mm | - | 136 W/m² | - |
| 1777665645 | 16.11° C | 66% | 1017.4 hPa | 0 mm | - | 126 W/m² | - |
| 1777665343 | 16.11° C | 66% | 1017.1 hPa | 0 mm | - | 113 W/m² | - |
| 1777665038 | 16.11° C | 67% | 1017.3 hPa | 0 mm | - | 113 W/m² | - |
| 1777664733 | 16.11° C | 66% | 1017 hPa | 0 mm | - | 120 W/m² | - |
| 1777664430 | 16.11° C | 67% | 1016.9 hPa | 0 mm | - | 136 W/m² | - |
| 1777664127 | 16.11° C | 65% | 1016.7 hPa | 0 mm | - | 148 W/m² | - |
| 1777663826 | 16.11° C | 69% | 1017 hPa | 0 mm | - | 142 W/m² | - |
* Rain latest hour (hover to see other rain measurements)
** Current wind speed in m/s (hover to see current wind gust speed)